Tracking 28790 objects as of 19-Apr-2024
HD Live streaming from Space Station
objects crossing your sky now

THOR ABLESTAR DEB

Track THOR ABLESTAR DEB now!
10-day predictions


NORAD ID: 1504
Int'l Code: 1965-065A
Perigee: 1,067.9 km
Apogee: 1,165.4 km
Inclination: 89.9 °
Period: 107.5 minutes
Semi major axis: 7487 km
RCS: 0.0138 m2 (small)
Launch date: August 13, 1965
Source: United States (US)
Launch site: AIR FORCE WESTERN TEST RANGE (AFWTR)

Note: This is SATELLITE DEBRIS
Your satellite tracking list
Your tracking list is empty




NASA's NSSDC Master Catalog

Two Line Element Set (TLE):
1 01504U 65065A   24109.40137774  .00000481  00000-0  85818-3 0  9997
2 01504  89.9179 246.2503 0065084 302.4581 112.8355 13.39936858861929
Source of the keplerian elements: AFSPC